Location: Sumter
(33.9203°N, 80.3401°W)
Time: 16:23:21
(UTC+00:00)

ISS - Visible Passes

Search period start: 16 August 2022 00:00
Search period end: 26 August 2022 00:00
Orbit: 412 x 420 km, 51.6° (Epoch: 16 August)

Date Brightness Start Highest point End Pass type
(mag) Time Alt. Az. Time Alt. Az. Time Alt. Az.
20 Aug -1.1 09:41:06 10° SSE 09:43:11 16° SE 09:45:18 10° E visible
22 Aug -3.2 09:40:25 20° SSW 09:42:26 54° SE 09:45:43 10° NE visible
23 Aug -2.1 08:54:05 26° SE 08:54:05 26° SE 08:56:47 10° ENE visible
24 Aug -3.1 09:40:33 28° W 09:41:51 42° NW 09:45:04 10° NNE visible
25 Aug -2.8 08:54:02 47° NE 08:54:02 47° NE 08:56:32 10° NE visible
